Regional Weather Roundup
Issued by NWS

Home | Current Version | Previous Version | Text Only | Print | Product List | Glossary On
Versions: 1 2 3 4 5 6 7 8 9 10 11 12 13 14 15 16 17 18 19 20 21 22 23 24 25 26 27 28 29 30 31 32 33 34 35 36 37 38 39 40 41 42 43 44 45 46 47 48 49 50
000
ASUS43 KOAX 220202
RWRNE

WEATHER ROUNDUP FOR NEBRASKA
NATIONAL WEATHER SERVICE OMAHA NE
800 PM CST SUN JAN 21 2018

NOTES: SATELLITE DATA IS BEING USED TO AUGMENT CLOUD COVER ABOVE
       12000 FEET.
       "FAIR" INDICATES FEW OR NO CLOUDS BELOW 12,000 FEET WITH NO
       SIGNIFICANT WEATHER AND/OR OBSTRUCTIONS TO VISIBILITY.


NEZ001>004-019>022-054>056-220300-
NEBRASKA PANHANDLE

CITY           SKY/WX    TMP DP  RH WIND       PRES   REMARKS
SCOTTSBLUFF    CLOUDY    27  24  89 NW20      29.96F WCI  13
ALLIANCE       CLOUDY    25  24  96 N22       29.91S FOG     WCI  10
CHADRON        LGT SNOW  28  26  92 NW10      30.01S FOG     WCI  19
GORDON         CLOUDY    28  25  89 NW16G22   29.94F WCI  15
KIMBALL        LGT SNOW  24  23  94 N24G37    29.90R WCI   9
SIDNEY         LGT SNOW  25  23  92 N31G38    29.88S VSB 1   WCI   8
$$

NEZ057>060-069>072-079>082-220300-
SOUTHWEST NEBRASKA

CITY           SKY/WX    TMP DP  RH WIND       PRES   REMARKS
NORTH PLATTE   FOG       31  28  89 N21       29.76F VSB 1/2 WCI  18
IMPERIAL       FOG       28  28 100 N30G40    29.77S VSB 1   WCI  12
LEXINGTON      LGT SNOW  33  31  93 NE16      29.69S WCI  22
MCCOOK         LGT SNOW  31  31 100 N26G38    29.68F VSB 3/4 WCI  17
OGALLALA       CLOUDY    30  28  93 N25       29.84S WCI  16
$$

NEZ005>010-023>029-035>040-094-220300-
NORTH CENTRAL NEBRASKA

CITY           SKY/WX    TMP DP  RH WIND       PRES   REMARKS
VALENTINE      LGT SNOW  31  28  89 N22G31    29.91S FOG     WCI  18
AINSWORTH      LGT SNOW  30  30 100 N16G25    29.88S VSB 1   WCI  19
BROKEN BOW     LGT SNOW  32  29  88 N26G41    29.71F FOG     WCI  18
O`NEILL        LGT SNOW  33  33 100 N28G33    29.83F WCI  19
ORD            LGT SNOW  33  31  92 N22G35    29.73F FOG     WCI  21
THEDFORD       CLOUDY    31  29  95 N17G25    29.84S WCI  19
$$

NEZ041-046>049-061>064-073>077-083>087-220300-
SOUTH CENTRAL NEBRASKA

CITY           SKY/WX    TMP DP  RH WIND       PRES   REMARKS
GRAND ISLAND   CLOUDY    33  33 100 NE25      29.67F WCI  20
AURORA         CLOUDY    34  34 100 NE24      29.67R FOG     WCI  22
HASTINGS       CLOUDY    33  32  96 NE12G22   29.67R FOG     WCI  24
HEBRON         CLOUDY    37  37  98 NE6       29.65F FOG     WCI  33
HOLDREGE       LGT SNOW  32  32 100 NE22G28   29.64F WCI  20
KEARNEY        FLURRIES  33  31  92 NE22G32   29.67S WCI  21
YORK           CLOUDY    36  36 100 NE23G29   29.66S FOG     WCI  24
$$

NEZ011>018-030>034-042>045-220300-
NORTHEAST NEBRASKA

CITY           SKY/WX    TMP DP  RH WIND       PRES   REMARKS
NORFOLK        LGT RAIN  46  33  60 NE20G28   29.74F
ALBION         LGT SNOW  34  32  92 NE22G30   29.72F WCI  22
BLAIR          LGT RAIN  37  36  97 NE16G25   29.68F VSB 1   WCI  27
COLUMBUS       CLOUDY    35  33  92 NE21G30   29.70F WCI  24
FREMONT        CLOUDY    37  37  99 NE13G21   29.69F FOG     WCI  29
TEKAMAH        CLOUDY    37  35  92 N20       29.73F FOG     WCI  27
WAYNE          LGT RAIN  35  34  96 NE17      29.79S WCI  24
$$

NEZ050>053-065>068-078-088>093-220300-
SOUTHEAST NEBRASKA

CITY           SKY/WX    TMP DP  RH WIND       PRES   REMARKS
LINCOLN        LGT RAIN  38  37  97 N13       29.68S WCI  30
OMAHA EPPLEY   CLOUDY    37  36  96 N14       29.69F FOG     WCI  28
BEATRICE       CLOUDY    40  40 100 NE14      29.64R FOG     WCI  32
FALLS CITY     CLOUDY    49  46  90 NE7       29.60F
NEBRASKA CITY  LGT RAIN  40  40 100 N12       29.65S VSB 1/4 WCI  33
PLATTSMOUTH    RAIN      39  39 100 N7        29.67S VSB 1/2 WCI  34
$$

NEZ044-045-051>053-067-220300-
OMAHA AREA

CITY           SKY/WX    TMP DP  RH WIND       PRES   REMARKS
OMAHA EPPLEY   CLOUDY    37  36  96 N14       29.69F FOG     WCI  28
BLAIR          LGT RAIN  37  36  97 NE16G25   29.68F VSB 1   WCI  27
FREMONT        CLOUDY    37  37  99 NE13G21   29.69F FOG     WCI  29
MILLARD        DRIZZLE   39  38  94 NE7       29.68F WCI  34
OFFUTT AFB     CLOUDY    38  38  99 NE14      29.66F FOG     WCI  29
PLATTSMOUTH    RAIN      39  39 100 N7        29.67S VSB 1/2 WCI  34
WAHOO          DRIZZLE   37  36  96 NE20      29.67F WCI  27
$$




USA.gov is the U.S. government's official web portal to all federal, state and local government web resources and services.